NS7V-1 Weather Reports


Display with metric or nautical units.
time (UTC)temp
F
wind
direction
speed
MPH
gust
MPH
rain 1hr
in
rain 24hr
in
rain mn
in
humidity
%
barometer
mb
20260505024521 55 203 1.0 4.0 0.00 0.00 0.00 82 1008.0
20260505023521 56 180 1.0 4.0 0.00 0.00 0.00 80 1008.1
20260505022522 56 180 2.0 5.0 0.00 0.00 0.00 79 1008.0
20260505021522 57 203 1.0 3.0 0.00 0.00 0.00 77 1008.2
20260505020522 58 203 2.0 5.0 0.00 0.00 0.00 75 1008.1
20260505015521 58 203 3.0 6.0 0.00 0.00 0.00 74 1008.2
20260505014521 59 203 2.0 5.0 0.00 0.00 0.00 73 1008.3
20260505013544 60 203 2.0 5.0 0.00 0.00 0.00 72 1008.4
20260505012522 60 203 2.0 5.0 0.00 0.00 0.00 72 1008.4
20260505011521 61 203 2.0 4.0 0.00 0.00 0.00 69 1008.4
20260505010521 62 203 2.0 5.0 0.00 0.00 0.00 69 1008.4
20260505005522 63 203 2.0 5.0 0.00 0.00 0.00 66 1008.5
20260505004521 64 203 2.0 5.0 0.00 0.00 0.00 64 1008.5
20260505003522 65 203 2.0 6.0 0.00 0.00 0.00 63 1008.6
20260505002521 66 203 3.0 6.0 0.00 0.00 0.00 59 1008.6
20260505001521 67 203 3.0 7.0 0.00 0.00 0.00 57 1008.7
20260505000522 68 203 3.0 7.0 0.00 0.00 0.00 57 1008.8
20260504235521 67 203 3.0 6.0 0.00 0.00 0.00 60 1008.8
20260504234522 66 203 2.0 5.0 0.00 0.00 0.00 62 1008.9
20260504233521 66 203 3.0 5.0 0.00 0.00 0.00 62 1008.9
20260504232641 66 203 2.0 5.0 0.00 0.00 0.00 64 1009.0
20260504231521 66 203 2.0 5.0 0.00 0.00 0.00 61 1009.0
20260504230521 67 203 2.0 4.0 0.00 0.00 0.00 60 1009.1
20260504225521 68 203 3.0 5.0 0.00 0.00 0.00 58 1009.2
20260504224521 70 203 2.0 4.0 0.00 0.00 0.00 52 1009.4
20260504223542 72 203 1.0 4.0 0.00 0.00 0.00 50 1009.3
20260504222521 72 180 2.0 4.0 0.00 0.00 0.00 49 1009.4
20260504221521 70 158 2.0 4.0 0.00 0.00 0.00 54 1009.4
20260504220521 70 203 2.0 4.0 0.00 0.00 0.00 54 1009.5
20260504215521 71 203 1.0 3.0 0.00 0.00 0.00 54 1009.6
20260504214601 71 180 2.0 4.0 0.00 0.00 0.00 52 1009.6
20260504213521 72 180 2.0 4.0 0.00 0.00 0.00 50 1009.7
20260504212521 72 203 2.0 3.0 0.00 0.00 0.00 51 1009.7
20260504211522 71 203 2.0 4.0 0.00 0.00 0.00 51 1009.8
20260504210521 71 158 2.0 4.0 0.00 0.00 0.00 52 1009.9
20260504205521 71 158 1.0 2.0 0.00 0.00 0.00 54 1009.8
20260504204522 70 203 2.0 4.0 0.00 0.00 0.00 59 1009.9
20260504203521 71 158 2.0 4.0 0.00 0.00 0.00 54 1010.1
20260504202521 71 180 2.0 4.0 0.00 0.00 0.00 53 1010.2
20260504201521 72 158 2.0 6.0 0.00 0.00 0.00 50 1010.1
20260504200521 71 203 1.0 4.0 0.00 0.00 0.00 52 1010.2
20260504195521 71 158 1.0 5.0 0.00 0.00 0.00 51 1010.3
20260504194521 71 158 1.0 3.0 0.00 0.00 0.00 53 1010.1
20260504193521 70 180 1.0 4.0 0.00 0.00 0.00 51 1010.2
20260504192521 70 203 2.0 6.0 0.00 0.00 0.00 53 1010.1
20260504191521 70 203 2.0 4.0 0.00 0.00 0.00 55 1010.1
20260504190520 70 203 2.0 4.0 0.00 0.00 0.00 57 1010.3
20260504185601 71 203 1.0 4.0 0.00 0.00 0.00 53 1010.3
20260504184521 71 203 1.0 3.0 0.00 0.00 0.00 54 1010.3
20260504183541 70 180 2.0 4.0 0.00 0.00 0.00 52 1010.2
20260504182520 70 158 2.0 4.0 0.00 0.00 0.00 55 1010.3
20260504181522 69 45 1.0 3.0 0.00 0.00 0.00 55 1010.4
20260504180521 68 45 1.0 3.0 0.00 0.00 0.00 57 1010.3
20260504175540 67 0.0 2.0 0.00 0.00 0.00 59 1010.3
20260504174521 67 45 1.0 5.0 0.00 0.00 0.00 61 1010.3
20260504173520 65 23 2.0 3.0 0.00 0.00 0.00 64 1010.3
20260504172520 64 45 1.0 3.0 0.00 0.00 0.00 65 1010.4
20260504171521 65 23 1.0 3.0 0.00 0.00 0.00 67 1010.4
20260504170520 64 45 1.0 3.0 0.00 0.00 0.00 69 1010.4
20260504150521 61 0.0 2.0 0.00 0.00 0.00 79 1010.3
20260504140521 53 0.0 0.0 0.00 0.00 0.00 88 1009.8
20260504130520 51 0.0 1.0 0.00 0.00 0.00 89 1009.3
20260504110522 52 0.0 2.0 0.00 0.00 0.00 88 1009.2
20260504100520 52 0.0 1.0 0.00 0.00 0.00 85 1009.1
20260504081542 54 0.0 1.0 0.00 0.00 0.00 79 1009.0
20260504080522 54 0.0 1.0 0.00 0.00 0.00 79 1009.0
20260504050522 55 0.0 2.0 0.00 0.00 0.00 80 1009.0
20260504045522 55 0.0 2.0 0.00 0.00 0.00 80 1009.1
20260504044522 55 0.0 2.0 0.00 0.00 0.00 79 1009.1
20260504043525 55 0.0 2.0 0.00 0.00 0.00 80 1009.2
20260504042521 55 0.0 2.0 0.00 0.00 0.00 80 1009.2
20260504041541 56 0.0 2.0 0.00 0.00 0.00 80 1009.1
20260504040522 56 0.0 1.0 0.00 0.00 0.00 79 1009.2
20260504035522 57 0.0 1.0 0.00 0.00 0.00 79 1009.2
20260504034522 57 0.0 1.0 0.00 0.00 0.00 76 1009.1
20260504033522 58 0.0 1.0 0.00 0.00 0.00 75 1009.1
20260504032522 59 0.0 1.0 0.00 0.00 0.00 73 1009.1
20260504031522 59 0.0 1.0 0.00 0.00 0.00 68 1009.0
20260504030521 60 0.0 1.0 0.00 0.00 0.00 67 1009.1
20260504025522 60 0.0 1.0 0.00 0.00 0.00 67 1009.1